Regional Weather Roundup
Issued by NWS

Home | Current Version | Previous Version | Graphics & Text | Print | Product List | Glossary On
Versions: 1 2 3 4 5 6 7 8 9 10 11 12 13 14 15 16 17 18 19 20 21 22 23 24 25 26 27 28 29 30 31 32 33 34 35 36 37 38 39 40 41 42 43 44 45 46 47 48 49 50
000
ASUS43 KBIS 181910
RWRND

NORTH DAKOTA REGIONAL WEATHER ROUNDUP
NATIONAL WEATHER SERVICE BISMARCK ND
100 PM CST MON DEC 18 2017

NOTE: "FAIR" INDICATES FEW OR NO CLOUDS BELOW 12,000 FEET WITH NO
SIGNIFICANT WEATHER AND/OR OBSTRUCTIONS TO VISIBILITY.


NDZ001>003-009>011-017-182000-
NORTHWEST NORTH DAKOTA

CITY           SKY/WX    TMP DP  RH WIND       PRES   REMARKS
WILLISTON      LGT RAIN  38  36  92 W12       29.58S
MINOT          LGT RAIN  36  33  89 W5        29.54S FOG
MINOT AFB      DRIZZLE   35  33  94 NW10      29.53S
$$

NDZ018>021-031>035-040>046-182000-
SOUTHWEST NORTH DAKOTA

CITY           SKY/WX    TMP DP  RH WIND       PRES   REMARKS
BISMARCK       CLOUDY    43  33  68 W16       29.59F
DICKINSON      MOSUNNY   42  29  59 W21G29    29.57F
GARRISON         N/A     37  36  96 W15       29.55S
HETTINGER ARPT CLOUDY    51  24  34 W26G32    29.63F
$$

NDZ004>008-012>016-024-026-027-054-182000-
NORTHEAST NORTH DAKOTA

CITY           SKY/WX    TMP DP  RH WIND       PRES   REMARKS
GRAND FORKS    CLOUDY    35  30  82 SW9       29.50F
GRND FRKS AFB  MOSUNNY   39  27  63 W9        29.50F
DEVILS LAKE    CLOUDY    36  28  73 W14       29.50F
$$

NDZ022-023-025-028>030-036>039-047>053-182000-
SOUTHEAST NORTH DAKOTA

CITY           SKY/WX    TMP DP  RH WIND       PRES   REMARKS
FARGO          CLOUDY    36  30  79 S9        29.56F
JAMESTOWN      CLOUDY    39  33  79 W20       29.53F
$$




USA.gov is the U.S. government's official web portal to all federal, state and local government web resources and services.